Location: Hamayl? Da??
(36.7028°N, 30.1716°E)
Time: 12:56:40
(UTC+00:00)

COSMOS 2455 - Pass Details

Date: 04 August 2024
Orbit: 898 x 911 km, 67.2° (Epoch: 12 September)

Event Time Altitude Azimuth Distance (km) Brightness Sun altitude
Rises 17:51:43 0° 343° (NNW) 3,547 6.7 -9.7°
Reaches altitude 10° 17:54:39 10° 355° (N) 2,602 5.8 -10.2°
Maximum altitude 17:59:42 27° 52° (NE) 1,675 4.1 -11.1°
Enters shadow 18:03:49 14° 103° (ESE) 2,326 4.4 -11.8°
